User: anonymous   Login
Location: Caltech
(34.1382°N, 118.1253°W)
Time: 19:50:34
(UTC-08:00)
Language:

DELTA 2 R/B (1) - Orbit

View from above orbital plane
View from above orbital plane
View from above satellite
View from above satellite

Ground track
Ground track

The orbit data is extracted from the following two-line orbital elements,

1 27665U 03005C   16343.40684800  .00000044  00000-0  51184-4 0  9992
2 27665  39.5771   1.6698 0008336 109.4161  24.5422 14.28428792723640
Epoch (UTC): 08 December 2016 09:45:51
Eccentricity: 0.0008336
inclination: 39.5771°
perigee height: 791 km
apogee height: 803 km
right ascension of ascending node: 1.6698°
argument of perigee: 109.4161°
revolutions per day: 14.28428792
mean anomaly at epoch: 24.5422°
orbit number at epoch: 72364

The dashed part of the orbit path shows where the satellite is in the earth's shadow,  

DLR